Címlap Időjárás Ferihegy, Budapest Airport időjárás előrejelzés – METAR, TAF BUD/LHBP

Időjárás Ferihegy, Budapest Airport időjárás előrejelzés – METAR, TAF BUD/LHBP

Aktuális szöveges időjárásjelentés / METAR BUD/LHBP, és 24 órás szöveges időjárás-előrejelzés / TAF BUD/LHBP Budapest Liszt Ferenc Nemzetközi Repülőtér

Available data for LHBP from the past 6 hours
Metar
LHBP 221800Z 20005KT 150V220 CAVOK 13/11 Q1022 NOSIG

18:00 UTC

Wind: 200° 5kt

Visibility:

Sky:

Temp: 13 deg C / 55.4 deg F

Dewpoint: 11 deg C / 51.8 deg F

Pressure: 1022 hPa

TAF
TAF LHBP 221715Z 2218/2318 23005KT CAVOK BECMG 2220/2222 VRB03KT BECMG 2305/2308 20007KT BECMG 2313/2316 13006KT

Szélirány és erősség Ferihegy és környéke

Európa műholdkép


6 napos időjárás előrejelzés – Budapest Ferihegy Airport


Data is taken from the National Weather Service at NOAA. Satelite image by AustroControl & Meteo-Mc. Only for spotters, do not use for real flight!

A METAR és a TAF adatok a National Weather Service adatbázisából származnak. Az oldalon közölt adatok tájékoztató jellegűek, az oldal üzemeltetője nem vállal felelősséget ezek esetleges pontatlanságáért. Ne használd valós repüléshez!

Légitársaságok, légi utazás hírei